GLD1620 SBBV-TGPY

Flight info

Callsign GLD1620
Flight time N/A
Altitude 39000
Route ANLO1A ANLOL ILNER LOLER KUMIX TOBLA ISAKU POS DUKLA IMORO
Aircraft A20N/M-SDE2E3FGHIRWXY/LB1

Departure

Time N/A
Airport Atlas Brasil Cantanhede International Airport (SBBV)

Arrival

Time 2026-04-20 16:55
Airport Maurice Bishop International Airport (TGPY)
Time Latitude Longitude Altitude Speed Heading
2026-04-20 15:53 5.52149 -60.94299 39061 ft 481 kts 349°
2026-04-20 15:53 5.55447 -60.94926 39061 ft 482 kts 349°
2026-04-20 15:53 5.62036 -60.96180 39054 ft 482 kts 349°
2026-04-20 15:54 5.68621 -60.97436 39053 ft 482 kts 349°
2026-04-20 15:54 5.75202 -60.98692 39049 ft 482 kts 349°
2026-04-20 15:55 5.81834 -60.99957 39045 ft 482 kts 349°
2026-04-20 15:55 5.88384 -61.01208 39041 ft 482 kts 349°
2026-04-20 15:56 5.94977 -61.02467 39036 ft 482 kts 349°
2026-04-20 15:56 6.01565 -61.03725 39029 ft 482 kts 349°
2026-04-20 15:57 6.08167 -61.04986 39025 ft 482 kts 349°
2026-04-20 15:57 6.14793 -61.06252 39024 ft 483 kts 349°
2026-04-20 15:58 6.21346 -61.07505 39019 ft 483 kts 349°
2026-04-20 15:58 6.27960 -61.08769 39014 ft 483 kts 349°
2026-04-20 15:59 6.34551 -61.10030 39004 ft 483 kts 349°
2026-04-20 15:59 6.41176 -61.11297 38998 ft 484 kts 349°
2026-04-20 16:00 6.47789 -61.12562 38991 ft 484 kts 349°
2026-04-20 16:00 6.54404 -61.13828 38992 ft 485 kts 349°
2026-04-20 16:01 6.61038 -61.15098 38987 ft 485 kts 349°
2026-04-20 16:01 6.67692 -61.16372 38979 ft 486 kts 348°
2026-04-20 16:02 6.73217 -61.17430 38984 ft 486 kts 348°
2026-04-20 16:02 6.80943 -61.18911 38988 ft 487 kts 348°
2026-04-20 16:03 6.86511 -61.19978 38983 ft 487 kts 348°
2026-04-20 16:03 6.94235 -61.21459 38986 ft 487 kts 348°
2026-04-20 16:04 6.99816 -61.22529 38990 ft 486 kts 348°
2026-04-20 16:04 7.06465 -61.23805 38999 ft 486 kts 348°
2026-04-20 16:05 7.13099 -61.25077 38992 ft 485 kts 348°
2026-04-20 16:05 7.19724 -61.26349 38996 ft 485 kts 348°
2026-04-20 16:06 7.26349 -61.27621 38990 ft 484 kts 348°
2026-04-20 16:06 7.32972 -61.28893 38995 ft 483 kts 348°
2026-04-20 16:07 7.39572 -61.30161 38991 ft 483 kts 348°
2026-04-20 16:07 7.46102 -61.31415 38993 ft 482 kts 348°
2026-04-20 16:08 7.52695 -61.32683 38988 ft 481 kts 348°
2026-04-20 16:08 7.59226 -61.33939 38985 ft 481 kts 348°
2026-04-20 16:09 7.65793 -61.35202 38980 ft 480 kts 348°
2026-04-20 16:09 7.72401 -61.36473 38982 ft 480 kts 348°
2026-04-20 16:10 7.78905 -61.37725 38978 ft 480 kts 348°
2026-04-20 16:10 7.85472 -61.38989 38979 ft 480 kts 348°
2026-04-20 16:11 7.92028 -61.40252 38978 ft 479 kts 348°
2026-04-20 16:11 7.98578 -61.41513 38979 ft 479 kts 348°
2026-04-20 16:12 8.05137 -61.42740 38980 ft 480 kts 351°
2026-04-20 16:12 8.11803 -61.43235 38985 ft 480 kts 356°
2026-04-20 16:13 8.18471 -61.43595 38987 ft 480 kts 356°
2026-04-20 16:13 8.25235 -61.43965 38991 ft 481 kts 356°
2026-04-20 16:14 8.31922 -61.44329 38993 ft 481 kts 356°
2026-04-20 16:14 8.38547 -61.44689 38996 ft 480 kts 356°
2026-04-20 16:15 8.45226 -61.45052 38994 ft 480 kts 356°
2026-04-20 16:15 8.51901 -61.45414 38992 ft 480 kts 356°
2026-04-20 16:16 8.58559 -61.45777 38989 ft 479 kts 356°
2026-04-20 16:16 8.65186 -61.45962 38982 ft 480 kts
2026-04-20 16:17 8.71857 -61.45699 38980 ft 480 kts
2026-04-20 16:17 8.78518 -61.45456 38978 ft 480 kts
2026-04-20 16:18 8.85186 -61.45213 38977 ft 480 kts
2026-04-20 16:18 8.91861 -61.44967 38973 ft 480 kts
2026-04-20 16:19 8.98534 -61.44720 38972 ft 480 kts
2026-04-20 16:19 9.05216 -61.44474 38976 ft 480 kts
2026-04-20 16:20 9.11909 -61.44227 38976 ft 481 kts
2026-04-20 16:20 9.18592 -61.43980 38978 ft 481 kts
2026-04-20 16:21 9.25268 -61.43734 38978 ft 482 kts
2026-04-20 16:21 9.32028 -61.43484 38984 ft 482 kts
2026-04-20 16:22 9.38702 -61.43237 38985 ft 483 kts
2026-04-20 16:22 9.45399 -61.42990 38989 ft 484 kts
2026-04-20 16:23 9.52152 -61.42740 38992 ft 484 kts
2026-04-20 16:23 9.58895 -61.42491 38992 ft 485 kts
2026-04-20 16:24 9.65636 -61.42241 38996 ft 485 kts
2026-04-20 16:24 9.72387 -61.41991 38996 ft 486 kts
2026-04-20 16:25 9.79107 -61.41743 39002 ft 486 kts
2026-04-20 16:25 9.85897 -61.41491 39001 ft 486 kts
2026-04-20 16:26 9.92558 -61.41243 38849 ft 468 kts
2026-04-20 16:26 9.95792 -61.41122 38435 ft 463 kts
2026-04-20 16:26 9.99003 -61.41002 37945 ft 458 kts
2026-04-20 16:27 10.02135 -61.40885 37437 ft 454 kts
2026-04-20 16:27 10.05283 -61.40769 36947 ft 451 kts
2026-04-20 16:27 10.08426 -61.40652 36447 ft 447 kts
2026-04-20 16:27 10.11516 -61.40538 35975 ft 443 kts 360°
2026-04-20 16:28 10.14593 -61.40424 35513 ft 440 kts 360°
2026-04-20 16:28 10.17632 -61.40311 35066 ft 437 kts 360°
2026-04-20 16:28 10.20669 -61.40198 34615 ft 433 kts 360°
2026-04-20 16:28 10.23608 -61.40089 34187 ft 430 kts 359°
2026-04-20 16:29 10.26646 -61.39976 33709 ft 427 kts 359°
2026-04-20 16:29 10.29556 -61.39867 33274 ft 422 kts 359°
2026-04-20 16:29 10.32479 -61.39758 32829 ft 418 kts 359°
2026-04-20 16:29 10.35373 -61.39650 32392 ft 414 kts 359°
2026-04-20 16:30 10.38237 -61.39543 31959 ft 410 kts 359°
2026-04-20 16:30 10.41069 -61.39437 31536 ft 407 kts 359°
2026-04-20 16:30 10.43887 -61.39332 31115 ft 403 kts 358°
2026-04-20 16:30 10.46660 -61.39415 30695 ft 395 kts 349°
2026-04-20 16:31 10.49351 -61.39899 30276 ft 388 kts 341°
2026-04-20 16:31 10.51944 -61.40581 29850 ft 384 kts 341°
2026-04-20 16:31 10.54526 -61.41243 29386 ft 380 kts 341°
2026-04-20 16:31 10.57035 -61.41880 28948 ft 376 kts 341°
2026-04-20 16:32 10.59564 -61.42521 28499 ft 373 kts 341°
2026-04-20 16:32 10.62073 -61.43159 28061 ft 369 kts 341°
2026-04-20 16:32 10.64544 -61.43788 27641 ft 366 kts 341°
2026-04-20 16:32 10.67012 -61.44417 27223 ft 362 kts 341°
2026-04-20 16:33 10.69449 -61.45038 26820 ft 359 kts 341°
2026-04-20 16:33 10.71854 -61.45652 26421 ft 356 kts 341°
2026-04-20 16:33 10.74251 -61.46263 26036 ft 353 kts 341°
2026-04-20 16:33 10.76622 -61.46869 25682 ft 349 kts 341°
2026-04-20 16:34 10.78970 -61.47468 25275 ft 347 kts 341°
2026-04-20 16:34 10.81296 -61.48062 24889 ft 344 kts 341°
2026-04-20 16:34 10.83607 -61.48653 24522 ft 341 kts 341°
2026-04-20 16:34 10.85895 -61.49238 24158 ft 338 kts 341°
2026-04-20 16:35 10.88165 -61.49818 23806 ft 335 kts 341°
2026-04-20 16:35 10.90408 -61.50392 23427 ft 332 kts 341°
2026-04-20 16:35 10.92636 -61.50962 22984 ft 330 kts 341°
2026-04-20 16:35 10.94834 -61.51525 22538 ft 328 kts 341°
2026-04-20 16:36 10.97032 -61.52089 22113 ft 326 kts 341°
2026-04-20 16:36 10.99228 -61.52651 21685 ft 324 kts 342°
2026-04-20 16:36 11.01399 -61.53206 21266 ft 322 kts 342°
2026-04-20 16:36 11.03566 -61.53760 20860 ft 320 kts 342°
2026-04-20 16:37 11.05724 -61.54312 20470 ft 318 kts 342°
2026-04-20 16:37 11.07862 -61.54859 20081 ft 317 kts 342°
2026-04-20 16:37 11.10000 -61.55407 19692 ft 315 kts 342°
2026-04-20 16:37 11.12117 -61.55948 19310 ft 313 kts 342°
2026-04-20 16:38 11.14228 -61.56489 18941 ft 311 kts 343°
2026-04-20 16:38 11.16318 -61.57024 18559 ft 310 kts 343°
2026-04-20 16:38 11.18411 -61.57560 18185 ft 309 kts 343°
2026-04-20 16:38 11.20489 -61.58091 17767 ft 307 kts 343°
2026-04-20 16:39 11.22554 -61.58619 17346 ft 305 kts 343°
2026-04-20 16:39 11.24610 -61.59145 16930 ft 304 kts 343°
2026-04-20 16:39 11.26653 -61.59668 16532 ft 302 kts 343°
2026-04-20 16:39 11.28676 -61.60186 16130 ft 301 kts 343°
2026-04-20 16:40 11.30676 -61.60698 15747 ft 299 kts 343°
2026-04-20 16:40 11.32689 -61.61214 15357 ft 298 kts 343°
2026-04-20 16:40 11.34693 -61.61728 14978 ft 297 kts 343°
2026-04-20 16:40 11.36698 -61.62242 14596 ft 296 kts 343°
2026-04-20 16:41 11.38680 -61.62749 14218 ft 295 kts 343°
2026-04-20 16:41 11.40675 -61.63256 13836 ft 294 kts 344°
2026-04-20 16:41 11.42646 -61.63757 13453 ft 292 kts 344°
2026-04-20 16:41 11.44621 -61.64260 13063 ft 290 kts 344°
2026-04-20 16:42 11.46569 -61.64756 12693 ft 287 kts 344°
2026-04-20 16:42 11.47224 -61.64922 12562 ft 287 kts 344°
2026-04-20 16:42 11.47463 -61.64983 12511 ft 286 kts 344°
2026-04-20 16:42 11.48603 -61.65274 12290 ft 285 kts 344°
2026-04-20 16:43 11.50509 -61.65776 11913 ft 283 kts 341°
2026-04-20 16:43 11.52321 -61.66542 11539 ft 280 kts 330°
2026-04-20 16:43 11.53976 -61.67576 11171 ft 278 kts 326°
2026-04-20 16:43 11.55601 -61.68618 10816 ft 276 kts 327°
2026-04-20 16:44 11.57233 -61.69653 10452 ft 274 kts 327°
2026-04-20 16:44 11.58820 -61.70657 10108 ft 273 kts 327°
2026-04-20 16:44 11.60432 -61.71675 9731 ft 272 kts 327°
2026-04-20 16:44 11.62038 -61.72690 9322 ft 271 kts 328°
2026-04-20 16:45 11.63597 -61.73676 8935 ft 270 kts 328°
2026-04-20 16:45 11.65209 -61.74697 8542 ft 269 kts 328°
2026-04-20 16:45 11.66797 -61.75701 8162 ft 268 kts 328°
2026-04-20 16:45 11.68380 -61.76704 7778 ft 268 kts 328°
2026-04-20 16:46 11.69965 -61.77706 7421 ft 267 kts 328°
2026-04-20 16:46 11.71538 -61.78701 7053 ft 266 kts 329°
2026-04-20 16:46 11.73110 -61.79698 6686 ft 266 kts 329°
2026-04-20 16:46 11.74678 -61.80691 6320 ft 265 kts 329°
2026-04-20 16:47 11.76239 -61.81680 5986 ft 264 kts 329°
2026-04-20 16:47 11.77795 -61.82664 5654 ft 261 kts 330°
2026-04-20 16:47 11.79325 -61.83632 5290 ft 260 kts 330°
2026-04-20 16:47 11.80864 -61.84607 4954 ft 258 kts 330°
2026-04-20 16:48 11.82378 -61.85567 4648 ft 256 kts 330°
2026-04-20 16:48 11.83876 -61.86515 4261 ft 255 kts 330°
2026-04-20 16:48 11.85386 -61.87474 3987 ft 252 kts 330°
2026-04-20 16:48 11.86880 -61.88420 3652 ft 252 kts 330°
2026-04-20 16:49 11.88378 -61.89369 3342 ft 250 kts 330°
2026-04-20 16:49 11.89817 -61.90282 3185 ft 237 kts 331°
2026-04-20 16:49 11.91169 -61.91141 3051 ft 219 kts 331°
2026-04-20 16:49 11.92419 -61.91936 2900 ft 207 kts 331°
2026-04-20 16:50 11.93620 -61.92697 2688 ft 198 kts 332°
2026-04-20 16:50 11.94780 -61.93428 2232 ft 199 kts 332°
2026-04-20 16:50 11.95940 -61.94161 2026 ft 190 kts 332°
2026-04-20 16:50 11.97077 -61.94822 1989 ft 189 kts 343°
2026-04-20 16:51 11.98352 -61.94950 2003 ft 180 kts 14°
2026-04-20 16:51 11.99487 -61.94444 1991 ft 178 kts 41°
2026-04-20 16:51 12.00234 -61.93491 2006 ft 172 kts 65°
2026-04-20 16:51 12.00486 -61.92319 2020 ft 170 kts 90°
2026-04-20 16:52 12.00469 -61.91516 2008 ft 172 kts 91°
2026-04-20 16:52 12.00447 -61.89894 1989 ft 173 kts 90°
2026-04-20 16:52 12.00443 -61.89125 1950 ft 158 kts 90°
2026-04-20 16:52 12.00445 -61.87688 1797 ft 149 kts 91°
2026-04-20 16:53 12.00441 -61.86980 1670 ft 145 kts 92°
2026-04-20 16:53 12.00454 -61.85603 1392 ft 155 kts 89°
2026-04-20 16:53 12.00460 -61.84476 1228 ft 162 kts 89°
2026-04-20 16:53 12.00454 -61.83701 1073 ft 162 kts 90°
2026-04-20 16:54 12.00445 -61.82542 770 ft 163 kts 92°
2026-04-20 16:54 12.00431 -61.81381 460 ft 164 kts 93°
2026-04-20 16:54 12.00426 -61.80158 189 ft 161 kts 94°
2026-04-20 16:54 12.00418 -61.79373 59 ft 158 kts 94°
2026-04-20 16:55 12.00406 -61.78738 45 ft 117 kts 98°
2026-04-20 16:55 12.00401 -61.78134 45 ft 55 kts 90°
2026-04-20 16:55 12.00403 -61.77868 47 ft 35 kts 89°
2026-04-20 16:55 12.00405 -61.77615 51 ft 34 kts 92°
2026-04-20 16:56 12.00430 -61.77417 56 ft 15 kts 49°
2026-04-20 16:56 12.00422 -61.77365 49 ft 4 kts 164°
2026-04-20 16:56 12.00396 -61.77419 53 ft 16 kts 277°
2026-04-20 16:56 12.00400 -61.77587 53 ft 30 kts 270°
2026-04-20 16:57 12.00388 -61.77839 44 ft 38 kts 269°
2026-04-20 16:57 12.00403 -61.78141 45 ft 46 kts 270°
2026-04-20 16:57 12.00402 -61.78483 44 ft 47 kts 274°
2026-04-20 16:57 12.00449 -61.78594 44 ft 10 kts 335°
2026-04-20 16:58 12.00546 -61.78604 42 ft 18 kts 18°
2026-04-20 16:58 12.00655 -61.78584 42 ft 9 kts 358°
2026-04-20 16:58 12.00662 -61.78584 43 ft 0 kts 357°